| time (UTC) | temp F | wind direction | speed MPH | gust MPH | rain 1hr in | rain 24hr in | rain mn in | humidity % | barometer mb |
| 20260509052459 | 30 | 277 | 0.0 | 0.0 | 0.00 | 0.00 | 0.00 | 88 | 1013.7 |
| 20260509051958 | 31 | 277 | 0.0 | 0.0 | 0.00 | 0.00 | 0.00 | 87 | 1013.7 |
| 20260509051503 | 31 | 277 | 0.0 | 0.0 | 0.00 | 0.00 | 0.00 | 86 | 1014.7 |
| 20260509051449 | 31 | 277 | 0.0 | 0.0 | 0.00 | 0.00 | 0.00 | 86 | 1013.5 |
| 20260509050948 | 31 | 277 | 0.0 | 0.0 | 0.00 | 0.00 | 0.00 | 86 | 1013.5 |
| 20260509050106 | 31 | 277 | 0.0 | 0.0 | 0.00 | 0.00 | 0.00 | 87 | 1014.8 |
| 20260509045948 | 31 | 277 | 0.0 | 0.0 | 0.00 | 0.00 | 0.00 | 87 | 1013.8 |
| 20260509045448 | 32 | 277 | 0.0 | 0.0 | 0.00 | 0.00 | 0.00 | 86 | 1013.8 |
| 20260509044503 | 32 | 277 | 0.0 | 0.0 | 0.00 | 0.00 | 0.00 | 86 | 1014.9 |
| 20260509044449 | 32 | 277 | 0.0 | 0.0 | 0.00 | 0.00 | 0.00 | 86 | 1013.9 |
| 20260509043949 | 32 | 277 | 0.0 | 0.0 | 0.00 | 0.00 | 0.00 | 84 | 1013.8 |
| 20260509043448 | 33 | 277 | 0.0 | 0.0 | 0.00 | 0.00 | 0.00 | 85 | 1013.9 |
| 20260509043105 | 32 | 277 | 0.0 | 0.0 | 0.00 | 0.00 | 0.00 | 85 | 1014.9 |
| 20260509042945 | 32 | 277 | 0.0 | 0.0 | 0.00 | 0.00 | 0.00 | 85 | 1013.9 |
| 20260509042439 | 32 | 277 | 0.0 | 0.0 | 0.00 | 0.00 | 0.00 | 85 | 1013.9 |
| 20260509041931 | 32 | 277 | 0.0 | 0.0 | 0.00 | 0.00 | 0.00 | 85 | 1013.9 |
| 20260509041653 | 31 | 277 | 0.0 | 0.0 | 0.00 | 0.00 | 0.00 | 85 | 1014.7 |
| 20260509041432 | 32 | 277 | 0.0 | 0.0 | 0.00 | 0.00 | 0.00 | 85 | 1013.8 |
| 20260509040932 | 32 | 277 | 0.0 | 0.0 | 0.00 | 0.00 | 0.00 | 84 | 1013.5 |
| 20260509040432 | 33 | 277 | 0.0 | 0.0 | 0.00 | 0.00 | 0.00 | 83 | 1013.5 |
| 20260509040048 | 32 | 277 | 0.0 | 0.0 | 0.00 | 0.00 | 0.00 | 83 | 1014.5 |
| 20260509035930 | 33 | 277 | 0.0 | 0.0 | 0.00 | 0.00 | 0.00 | 83 | 1013.4 |
| 20260509035430 | 33 | 277 | 0.0 | 0.0 | 0.00 | 0.00 | 0.00 | 85 | 1013.4 |
| 20260509034930 | 33 | 277 | 0.0 | 0.0 | 0.00 | 0.00 | 0.00 | 85 | 1013.3 |
| 20260509034640 | 33 | 277 | 0.0 | 0.0 | 0.00 | 0.00 | 0.00 | 85 | 1014.2 |
| 20260509034430 | 33 | 277 | 0.0 | 0.0 | 0.00 | 0.00 | 0.00 | 84 | 1013.1 |
| 20260509033037 | 33 | 277 | 0.0 | 0.0 | 0.00 | 0.00 | 0.00 | 83 | 1014.0 |
| 20260509032930 | 34 | 277 | 0.0 | 0.0 | 0.00 | 0.00 | 0.00 | 83 | 1012.9 |
| 20260509032430 | 34 | 277 | 0.0 | 0.0 | 0.00 | 0.00 | 0.00 | 82 | 1013.0 |
| 20260509031929 | 34 | 277 | 0.0 | 0.0 | 0.00 | 0.00 | 0.00 | 81 | 1012.9 |
| 20260509031630 | 34 | 277 | 0.0 | 0.0 | 0.00 | 0.00 | 0.00 | 81 | 1014.0 |
| 20260509031429 | 35 | 277 | 0.0 | 0.0 | 0.00 | 0.00 | 0.00 | 80 | 1012.9 |
| 20260509030931 | 35 | 277 | 0.0 | 0.0 | 0.00 | 0.00 | 0.00 | 80 | 1012.9 |
| 20260509030200 | 34 | 277 | 0.0 | 0.0 | 0.00 | 0.00 | 0.00 | 83 | 1013.9 |
| 20260509025431 | 35 | 277 | 0.0 | 0.0 | 0.00 | 0.00 | 0.00 | 83 | 1012.7 |
| 20260509024929 | 35 | 277 | 0.0 | 0.0 | 0.00 | 0.00 | 0.00 | 81 | 1012.7 |
| 20260509024628 | 35 | 277 | 0.0 | 0.0 | 0.00 | 0.00 | 0.00 | 82 | 1013.7 |
| 20260509024431 | 35 | 277 | 0.0 | 0.0 | 0.00 | 0.00 | 0.00 | 81 | 1012.7 |
| 20260509023930 | 35 | 277 | 0.0 | 0.0 | 0.00 | 0.00 | 0.00 | 80 | 1012.7 |
| 20260509023431 | 35 | 277 | 0.0 | 0.0 | 0.00 | 0.00 | 0.00 | 79 | 1012.7 |
| 20260509023152 | 35 | 277 | 0.0 | 0.0 | 0.00 | 0.00 | 0.00 | 80 | 1013.7 |
| 20260509022430 | 35 | 277 | 0.0 | 0.0 | 0.00 | 0.00 | 0.00 | 81 | 1012.7 |
| 20260509021930 | 36 | 277 | 0.0 | 0.0 | 0.00 | 0.00 | 0.00 | 80 | 1012.7 |
| 20260509020929 | 36 | 277 | 0.0 | 0.0 | 0.00 | 0.00 | 0.00 | 79 | 1012.4 |
| 20260509020429 | 37 | 277 | 0.0 | 0.0 | 0.00 | 0.00 | 0.00 | 78 | 1012.4 |
| 20260509020012 | 36 | 277 | 0.0 | 0.0 | 0.00 | 0.00 | 0.00 | 78 | 1013.2 |
| 20260509015930 | 37 | 277 | 0.0 | 0.0 | 0.00 | 0.00 | 0.00 | 77 | 1012.2 |
| 20260509015429 | 37 | 277 | 0.0 | 0.0 | 0.00 | 0.00 | 0.00 | 77 | 1012.2 |
| 20260509014930 | 37 | 277 | 0.0 | 0.0 | 0.00 | 0.00 | 0.00 | 76 | 1012.2 |
| 20260509014601 | 37 | 277 | 0.0 | 0.0 | 0.00 | 0.00 | 0.00 | 76 | 1013.1 |
| 20260509014429 | 37 | 277 | 0.0 | 0.0 | 0.00 | 0.00 | 0.00 | 76 | 1012.1 |
| 20260509013930 | 38 | 277 | 0.0 | 0.0 | 0.00 | 0.00 | 0.00 | 75 | 1012.0 |
| 20260509013429 | 38 | 277 | 0.0 | 0.0 | 0.00 | 0.00 | 0.00 | 75 | 1012.0 |
| 20260509012930 | 38 | 277 | 0.0 | 0.0 | 0.00 | 0.00 | 0.00 | 75 | 1011.9 |
| 20260509011930 | 39 | 277 | 0.0 | 0.0 | 0.00 | 0.00 | 0.00 | 73 | 1011.8 |
| 20260509011601 | 38 | 277 | 0.0 | 0.0 | 0.00 | 0.00 | 0.00 | 73 | 1012.7 |
| 20260509011430 | 39 | 277 | 0.0 | 0.0 | 0.00 | 0.00 | 0.00 | 74 | 1011.8 |
| 20260509010930 | 39 | 277 | 0.0 | 0.0 | 0.00 | 0.00 | 0.00 | 73 | 1011.8 |
| 20260509010429 | 40 | 277 | 0.0 | 0.0 | 0.00 | 0.00 | 0.00 | 72 | 1011.7 |
| 20260509010148 | 39 | 277 | 0.0 | 0.0 | 0.00 | 0.00 | 0.00 | 72 | 1012.5 |
| 20260509005928 | 40 | 277 | 0.0 | 0.0 | 0.00 | 0.00 | 0.00 | 70 | 1011.5 |
| 20260509004652 | 41 | 277 | 0.0 | 0.0 | 0.00 | 0.00 | 0.00 | 67 | 1012.3 |
| 20260509003919 | 42 | 277 | 0.0 | 0.0 | 0.00 | 0.00 | 0.00 | 68 | 1011.3 |
| 20260509003131 | 42 | 277 | 0.0 | 0.0 | 0.00 | 0.00 | 0.00 | 68 | 1012.2 |
| 20260509001514 | 43 | 277 | 0.0 | 1.0 | 0.00 | 0.00 | 0.00 | 55 | 1012.0 |
| 20260509001415 | 44 | 277 | 0.0 | 1.0 | 0.00 | 0.00 | 0.00 | 57 | 1011.2 |
| 20260509000914 | 44 | 277 | 0.0 | 1.0 | 0.00 | 0.00 | 0.00 | 55 | 1011.0 |
| 20260509000414 | 45 | 277 | 0.0 | 0.0 | 0.00 | 0.00 | 0.00 | 55 | 1011.0 |
| 20260509000116 | 45 | 277 | 0.0 | 0.0 | 0.00 | 0.00 | 0.00 | 52 | 1011.9 |
| 20260508235915 | 46 | 277 | 0.0 | 0.0 | 0.00 | 0.00 | 0.00 | 53 | 1011.0 |
| 20260508235414 | 46 | 277 | 0.0 | 0.0 | 0.00 | 0.00 | 0.00 | 50 | 1011.0 |
| 20260508234915 | 46 | 277 | 0.0 | 0.0 | 0.00 | 0.00 | 0.00 | 49 | 1010.8 |
| 20260508234640 | 46 | 277 | 0.0 | 0.0 | 0.00 | 0.00 | 0.00 | 51 | 1011.8 |
| 20260508233912 | 47 | 277 | 0.0 | 1.0 | 0.00 | 0.00 | 0.00 | 47 | 1010.8 |
| 20260508233412 | 47 | 277 | 0.0 | 2.0 | 0.00 | 0.00 | 0.00 | 46 | 1010.8 |
| 20260508233103 | 47 | 277 | 0.0 | 2.0 | 0.00 | 0.00 | 0.00 | 47 | 1011.6 |
| 20260508232912 | 48 | 277 | 0.0 | 2.0 | 0.00 | 0.00 | 0.00 | 48 | 1010.7 |
| 20260508231913 | 49 | 277 | 0.0 | 1.0 | 0.00 | 0.00 | 0.00 | 42 | 1010.6 |
| 20260508231651 | 49 | 277 | 0.0 | 1.0 | 0.00 | 0.00 | 0.00 | 44 | 1011.5 |
| 20260508231413 | 50 | 277 | 0.0 | 2.0 | 0.00 | 0.00 | 0.00 | 42 | 1010.6 |
| 20260508230910 | 50 | 277 | 0.0 | 4.0 | 0.00 | 0.00 | 0.00 | 41 | 1010.6 |
| 20260508230410 | 50 | 277 | 1.0 | 4.0 | 0.00 | 0.00 | 0.00 | 44 | 1010.6 |
| 20260508230043 | 49 | 277 | 1.0 | 4.0 | 0.00 | 0.00 | 0.00 | 42 | 1011.4 |
| 20260508225909 | 50 | 277 | 0.0 | 2.0 | 0.00 | 0.00 | 0.00 | 42 | 1010.5 |
| 20260508225407 | 50 | 277 | 0.0 | 2.0 | 0.00 | 0.00 | 0.00 | 42 | 1010.5 |
| 20260508224637 | 50 | 277 | 0.0 | 2.0 | 0.00 | 0.00 | 0.00 | 43 | 1011.3 |
| 20260508224401 | 51 | 277 | 0.0 | 2.0 | 0.00 | 0.00 | 0.00 | 41 | 1010.5 |
| 20260508223903 | 51 | 277 | 1.0 | 3.0 | 0.00 | 0.00 | 0.00 | 40 | 1010.4 |
| 20260508223402 | 51 | 277 | 1.0 | 3.0 | 0.00 | 0.00 | 0.00 | 42 | 1010.3 |
| 20260508223030 | 51 | 277 | 0.0 | 3.0 | 0.00 | 0.00 | 0.00 | 40 | 1010.9 |
| 20260508222901 | 51 | 277 | 1.0 | 3.0 | 0.00 | 0.00 | 0.00 | 41 | 1010.1 |
| 20260508222358 | 51 | 277 | 1.0 | 6.0 | 0.00 | 0.00 | 0.00 | 43 | 1010.1 |
| 20260508221859 | 51 | 277 | 1.0 | 6.0 | 0.00 | 0.00 | 0.00 | 43 | 1010.1 |
| 20260508221631 | 50 | 277 | 1.0 | 3.0 | 0.00 | 0.00 | 0.00 | 43 | 1010.9 |
| 20260508221357 | 50 | 277 | 1.0 | 4.0 | 0.00 | 0.00 | 0.00 | 44 | 1010.0 |
| 20260508220353 | 49 | 277 | 0.0 | 2.0 | 0.00 | 0.00 | 0.00 | 45 | 1010.1 |
| 20260508220123 | 49 | 277 | 0.0 | 1.0 | 0.00 | 0.00 | 0.00 | 45 | 1010.8 |
| 20260508215345 | 49 | 277 | 0.0 | 1.0 | 0.00 | 0.00 | 0.00 | 46 | 1010.0 |
| 20260508214621 | 49 | 277 | 0.0 | 2.0 | 0.00 | 0.00 | 0.00 | 46 | 1010.9 |
| 20260508214339 | 50 | 277 | 1.0 | 3.0 | 0.00 | 0.00 | 0.00 | 44 | 1010.0 |
| 20260508213838 | 50 | 277 | 1.0 | 3.0 | 0.00 | 0.00 | 0.00 | 43 | 1010.0 |
| 20260508213335 | 51 | 277 | 1.0 | 3.0 | 0.00 | 0.00 | 0.00 | 44 | 1009.9 |
| 20260508213022 | 50 | 277 | 0.0 | 3.0 | 0.00 | 0.00 | 0.00 | 42 | 1010.6 |
| 20260508212836 | 51 | 277 | 1.0 | 5.0 | 0.00 | 0.00 | 0.00 | 43 | 1009.8 |
| 20260508212337 | 51 | 277 | 1.0 | 6.0 | 0.00 | 0.00 | 0.00 | 44 | 1009.8 |
| 20260508211610 | 51 | 277 | 2.0 | 5.0 | 0.00 | 0.00 | 0.00 | 44 | 1010.7 |
| 20260508211335 | 51 | 277 | 0.0 | 3.0 | 0.00 | 0.00 | 0.00 | 44 | 1009.8 |
| 20260508210334 | 51 | 277 | 1.0 | 4.0 | 0.00 | 0.00 | 0.00 | 44 | 1009.6 |
| 20260508210005 | 51 | 277 | 1.0 | 4.0 | 0.00 | 0.00 | 0.00 | 41 | 1010.4 |
| 20260508205832 | 52 | 277 | 1.0 | 4.0 | 0.00 | 0.00 | 0.00 | 42 | 1009.7 |
| 20260508205332 | 52 | 277 | 1.0 | 3.0 | 0.00 | 0.00 | 0.00 | 48 | 1009.8 |
| 20260508204831 | 51 | 277 | 2.0 | 7.0 | 0.00 | 0.00 | 0.00 | 45 | 1009.7 |
| 20260508204604 | 50 | 277 | 1.0 | 7.0 | 0.00 | 0.00 | 0.00 | 44 | 1010.4 |
| 20260508204332 | 50 | 277 | 2.0 | 7.0 | 0.00 | 0.00 | 0.00 | 45 | 1009.6 |
| 20260508203332 | 50 | 277 | 1.0 | 7.0 | 0.00 | 0.00 | 0.00 | 47 | 1009.6 |
| 20260508203002 | 49 | 277 | 1.0 | 3.0 | 0.00 | 0.00 | 0.00 | 47 | 1010.4 |
| 20260508202832 | 49 | 277 | 1.0 | 4.0 | 0.00 | 0.00 | 0.00 | 48 | 1009.6 |
| 20260508201831 | 50 | 277 | 2.0 | 7.0 | 0.00 | 0.00 | 0.00 | 46 | 1009.6 |
| 20260508201551 | 49 | 277 | 1.0 | 7.0 | 0.00 | 0.00 | 0.00 | 46 | 1010.3 |
| 20260508200332 | 50 | 277 | 2.0 | 10.0 | 0.00 | 0.00 | 0.00 | 47 | 1009.6 |
| 20260508200013 | 50 | 277 | 1.0 | 10.0 | 0.00 | 0.00 | 0.00 | 48 | 1010.3 |
| 20260508195832 | 50 | 277 | 3.0 | 10.0 | 0.00 | 0.00 | 0.00 | 46 | 1009.6 |
| 20260508195332 | 50 | 277 | 2.0 | 9.0 | 0.00 | 0.00 | 0.00 | 48 | 1009.3 |
| 20260508194832 | 50 | 277 | 1.0 | 6.0 | 0.00 | 0.00 | 0.00 | 48 | 1009.3 |
| 20260508194556 | 50 | 277 | 1.0 | 6.0 | 0.00 | 0.00 | 0.00 | 48 | 1010.0 |
| 20260508194332 | 50 | 277 | 1.0 | 6.0 | 0.00 | 0.00 | 0.00 | 50 | 1009.2 |
| 20260508193829 | 50 | 277 | 1.0 | 5.0 | 0.00 | 0.00 | 0.00 | 50 | 1009.2 |
| 20260508193110 | 50 | 277 | 1.0 | 5.0 | 0.00 | 0.00 | 0.00 | 51 | 1009.9 |
| 20260508192329 | 50 | 277 | 1.0 | 4.0 | 0.00 | 0.00 | 0.00 | 53 | 1009.0 |
| 20260508191829 | 50 | 277 | 1.0 | 4.0 | 0.00 | 0.00 | 0.00 | 53 | 1009.0 |
| 20260508191551 | 49 | 277 | 1.0 | 4.0 | 0.00 | 0.00 | 0.00 | 55 | 1009.9 |
| 20260508191329 | 49 | 277 | 1.0 | 4.0 | 0.00 | 0.00 | 0.00 | 57 | 1009.1 |
| 20260508190829 | 49 | 277 | 1.0 | 3.0 | 0.00 | 0.00 | 0.00 | 56 | 1009.0 |
| 20260508190328 | 49 | 277 | 1.0 | 3.0 | 0.00 | 0.00 | 0.00 | 60 | 1009.0 |
| 20260508190154 | 49 | 277 | 0.0 | 3.0 | 0.00 | 0.00 | 0.00 | 61 | 1010.0 |
| 20260508185829 | 49 | 277 | 1.0 | 4.0 | 0.00 | 0.00 | 0.00 | 58 | 1009.1 |
| 20260508184829 | 51 | 277 | 2.0 | 5.0 | 0.00 | 0.00 | 0.00 | 56 | 1009.1 |
| 20260508184547 | 50 | 277 | 2.0 | 5.0 | 0.00 | 0.00 | 0.00 | 52 | 1010.0 |
| 20260508183829 | 51 | 277 | 0.0 | 5.0 | 0.00 | 0.00 | 0.00 | 53 | 1008.9 |
| 20260508183330 | 51 | 277 | 1.0 | 3.0 | 0.00 | 0.00 | 0.00 | 53 | 1008.8 |
| 20260508183153 | 50 | 277 | 0.0 | 3.0 | 0.00 | 0.00 | 0.00 | 52 | 1009.5 |
| 20260508182829 | 51 | 277 | 1.0 | 3.0 | 0.00 | 0.00 | 0.00 | 53 | 1008.8 |
| 20260508182328 | 51 | 277 | 1.0 | 4.0 | 0.00 | 0.00 | 0.00 | 53 | 1008.8 |
| 20260508181829 | 51 | 277 | 1.0 | 4.0 | 0.00 | 0.00 | 0.00 | 52 | 1008.8 |
| 20260508181528 | 51 | 277 | 1.0 | 3.0 | 0.00 | 0.00 | 0.00 | 52 | 1009.6 |
| 20260508181332 | 51 | 277 | 1.0 | 4.0 | 0.00 | 0.00 | 0.00 | 54 | 1008.8 |
| 20260508180829 | 51 | 277 | 2.0 | 6.0 | 0.00 | 0.00 | 0.00 | 52 | 1008.8 |
| 20260508180329 | 52 | 277 | 2.0 | 6.0 | 0.00 | 0.00 | 0.00 | 49 | 1008.6 |
| 20260508180122 | 52 | 277 | 2.0 | 4.0 | 0.00 | 0.00 | 0.00 | 48 | 1009.4 |
| 20260508175829 | 53 | 277 | 1.0 | 4.0 | 0.00 | 0.00 | 0.00 | 48 | 1008.5 |
| 20260508175330 | 53 | 277 | 1.0 | 4.0 | 0.00 | 0.00 | 0.00 | 46 | 1008.6 |
| 20260508174830 | 53 | 277 | 1.0 | 4.0 | 0.00 | 0.00 | 0.00 | 46 | 1008.6 |
| 20260508174517 | 52 | 277 | 0.0 | 4.0 | 0.00 | 0.00 | 0.00 | 47 | 1009.4 |
| 20260508174329 | 52 | 277 | 1.0 | 4.0 | 0.00 | 0.00 | 0.00 | 47 | 1008.5 |
| 20260508173828 | 52 | 277 | 1.0 | 3.0 | 0.00 | 0.00 | 0.00 | 45 | 1008.5 |
| 20260508173116 | 52 | 277 | 1.0 | 4.0 | 0.00 | 0.00 | 0.00 | 42 | 1009.4 |
| 20260508172829 | 52 | 277 | 1.0 | 4.0 | 0.00 | 0.00 | 0.00 | 44 | 1008.6 |
| 20260508172330 | 52 | 277 | 1.0 | 4.0 | 0.00 | 0.00 | 0.00 | 48 | 1008.6 |
| 20260508171830 | 51 | 277 | 1.0 | 4.0 | 0.00 | 0.00 | 0.00 | 44 | 1008.6 |
| 20260508171519 | 51 | 277 | 0.0 | 6.0 | 0.00 | 0.00 | 0.00 | 42 | 1009.4 |
| 20260508171329 | 51 | 277 | 1.0 | 6.0 | 0.00 | 0.00 | 0.00 | 41 | 1008.6 |
| 20260508170829 | 51 | 277 | 1.0 | 6.0 | 0.00 | 0.00 | 0.00 | 44 | 1008.7 |
| 20260508170052 | 51 | 277 | 1.0 | 4.0 | 0.00 | 0.00 | 0.00 | 44 | 1009.5 |
| 20260508165329 | 52 | 277 | 1.0 | 5.0 | 0.00 | 0.00 | 0.00 | 43 | 1008.7 |
| 20260508164828 | 52 | 277 | 1.0 | 5.0 | 0.00 | 0.00 | 0.00 | 44 | 1008.7 |
| 20260508164656 | 52 | 277 | 1.0 | 5.0 | 0.00 | 0.00 | 0.00 | 44 | 1009.4 |
| 20260508164330 | 53 | 277 | 2.0 | 8.0 | 0.00 | 0.00 | 0.00 | 41 | 1008.8 |
| 20260508163822 | 53 | 277 | 2.0 | 8.0 | 0.00 | 0.00 | 0.00 | 41 | 1008.8 |
| 20260508163316 | 53 | 277 | 1.0 | 5.0 | 0.00 | 0.00 | 0.00 | 46 | 1008.7 |
| 20260508163047 | 52 | 277 | 1.0 | 5.0 | 0.00 | 0.00 | 0.00 | 44 | 1009.5 |
| 20260508162809 | 53 | 277 | 1.0 | 3.0 | 0.00 | 0.00 | 0.00 | 42 | 1008.7 |
| 20260508162307 | 52 | 277 | 0.0 | 3.0 | 0.00 | 0.00 | 0.00 | 48 | 1008.7 |
| 20260508161807 | 52 | 277 | 1.0 | 2.0 | 0.00 | 0.00 | 0.00 | 49 | 1008.7 |
| 20260508161635 | 51 | 277 | 0.0 | 2.0 | 0.00 | 0.00 | 0.00 | 48 | 1009.5 |
| 20260508161305 | 51 | 277 | 1.0 | 5.0 | 0.00 | 0.00 | 0.00 | 50 | 1008.7 |
| 20260508160803 | 51 | 277 | 1.0 | 5.0 | 0.00 | 0.00 | 0.00 | 46 | 1008.7 |
| 20260508160303 | 51 | 277 | 1.0 | 3.0 | 0.00 | 0.00 | 0.00 | 47 | 1008.7 |
| 20260508160036 | 50 | 277 | 1.0 | 4.0 | 0.00 | 0.00 | 0.00 | 49 | 1009.5 |
| 20260508155801 | 50 | 277 | 2.0 | 4.0 | 0.00 | 0.00 | 0.00 | 48 | 1008.8 |
| 20260508154632 | 50 | 277 | 1.0 | 4.0 | 0.00 | 0.00 | 0.00 | 44 | 1009.5 |
| 20260508154300 | 51 | 277 | 1.0 | 4.0 | 0.00 | 0.00 | 0.00 | 42 | 1008.7 |
| 20260508153802 | 51 | 277 | 1.0 | 4.0 | 0.00 | 0.00 | 0.00 | 41 | 1008.6 |
| 20260508153301 | 51 | 277 | 1.0 | 7.0 | 0.00 | 0.00 | 0.00 | 44 | 1008.7 |
| 20260508153031 | 51 | 277 | 1.0 | 7.0 | 0.00 | 0.00 | 0.00 | 42 | 1009.5 |
| 20260508152802 | 51 | 277 | 1.0 | 7.0 | 0.00 | 0.00 | 0.00 | 43 | 1008.7 |
| 20260508152300 | 51 | 277 | 2.0 | 8.0 | 0.00 | 0.00 | 0.00 | 44 | 1008.6 |
| 20260508151801 | 51 | 277 | 2.0 | 8.0 | 0.00 | 0.00 | 0.00 | 47 | 1008.7 |
| 20260508151629 | 51 | 277 | 3.0 | 8.0 | 0.00 | 0.00 | 0.00 | 45 | 1009.5 |
| 20260508151302 | 51 | 277 | 1.0 | 5.0 | 0.00 | 0.00 | 0.00 | 46 | 1008.6 |
| 20260508150802 | 51 | 277 | 1.0 | 4.0 | 0.00 | 0.00 | 0.00 | 46 | 1008.6 |
| 20260508150301 | 51 | 277 | 1.0 | 4.0 | 0.00 | 0.00 | 0.00 | 48 | 1008.7 |
| 20260508150038 | 51 | 277 | 1.0 | 4.0 | 0.00 | 0.00 | 0.00 | 47 | 1009.6 |
| 20260508145802 | 51 | 277 | 0.0 | 3.0 | 0.00 | 0.00 | 0.00 | 46 | 1008.7 |
| 20260508145306 | 52 | 277 | 1.0 | 2.0 | 0.00 | 0.00 | 0.00 | 46 | 1008.6 |
| 20260508144800 | 53 | 277 | 1.0 | 5.0 | 0.00 | 0.00 | 0.00 | 44 | 1008.6 |
| 20260508144622 | 52 | 277 | 0.0 | 7.0 | 0.00 | 0.00 | 0.00 | 43 | 1009.4 |
| 20260508144302 | 53 | 277 | 2.0 | 7.0 | 0.00 | 0.00 | 0.00 | 44 | 1008.6 |
| 20260508143802 | 53 | 277 | 1.0 | 7.0 | 0.00 | 0.00 | 0.00 | 44 | 1008.4 |
| 20260508143301 | 52 | 277 | 1.0 | 4.0 | 0.00 | 0.00 | 0.00 | 47 | 1008.6 |
| 20260508143024 | 52 | 277 | 1.0 | 4.0 | 0.00 | 0.00 | 0.00 | 46 | 1009.4 |
| 20260508142801 | 52 | 277 | 1.0 | 3.0 | 0.00 | 0.00 | 0.00 | 47 | 1008.6 |
| 20260508142301 | 51 | 277 | 1.0 | 4.0 | 0.00 | 0.00 | 0.00 | 51 | 1008.6 |
| 20260508141608 | 51 | 277 | 1.0 | 4.0 | 0.00 | 0.00 | 0.00 | 48 | 1009.4 |
| 20260508141302 | 51 | 277 | 1.0 | 3.0 | 0.00 | 0.00 | 0.00 | 50 | 1008.6 |
| 20260508140003 | 50 | 277 | 0.0 | 4.0 | 0.00 | 0.00 | 0.00 | 50 | 1009.7 |
| 20260508135753 | 50 | 277 | 1.0 | 4.0 | 0.00 | 0.00 | 0.00 | 47 | 1008.9 |
| 20260508135248 | 51 | 277 | 1.0 | 3.0 | 0.00 | 0.00 | 0.00 | 48 | 1008.9 |
| 20260508134742 | 52 | 277 | 1.0 | 4.0 | 0.00 | 0.00 | 0.00 | 46 | 1008.9 |
| 20260508134608 | 52 | 277 | 0.0 | 4.0 | 0.00 | 0.00 | 0.00 | 47 | 1009.7 |
| 20260508134237 | 53 | 277 | 1.0 | 4.0 | 0.00 | 0.00 | 0.00 | 48 | 1008.8 |
| 20260508133738 | 52 | 277 | 1.0 | 3.0 | 0.00 | 0.00 | 0.00 | 47 | 1008.8 |
| 20260508133002 | 51 | 277 | 0.0 | 5.0 | 0.00 | 0.00 | 0.00 | 50 | 1009.7 |
| 20260508132736 | 51 | 277 | 1.0 | 5.0 | 0.00 | 0.00 | 0.00 | 51 | 1008.9 |
| 20260508132232 | 51 | 277 | 1.0 | 3.0 | 0.00 | 0.00 | 0.00 | 50 | 1009.1 |
| 20260508131733 | 51 | 277 | 1.0 | 3.0 | 0.00 | 0.00 | 0.00 | 55 | 1008.9 |
| 20260508131604 | 50 | 277 | 0.0 | 3.0 | 0.00 | 0.00 | 0.00 | 52 | 1009.9 |
| 20260508131233 | 51 | 277 | 1.0 | 3.0 | 0.00 | 0.00 | 0.00 | 53 | 1008.9 |
| 20260508130731 | 50 | 277 | 1.0 | 3.0 | 0.00 | 0.00 | 0.00 | 56 | 1009.0 |
| 20260508130232 | 50 | 277 | 1.0 | 3.0 | 0.00 | 0.00 | 0.00 | 54 | 1009.1 |
| 20260508130002 | 49 | 277 | 0.0 | 2.0 | 0.00 | 0.00 | 0.00 | 53 | 1010.0 |
| 20260508125731 | 50 | 277 | 0.0 | 2.0 | 0.00 | 0.00 | 0.00 | 56 | 1009.2 |
| 20260508124729 | 49 | 277 | 0.0 | 1.0 | 0.00 | 0.00 | 0.00 | 57 | 1009.1 |
| 20260508124501 | 48 | 277 | 0.0 | 2.0 | 0.00 | 0.00 | 0.00 | 59 | 1010.0 |
| 20260508123731 | 48 | 277 | 0.0 | 2.0 | 0.00 | 0.00 | 0.00 | 62 | 1009.2 |
| 20260508123229 | 47 | 277 | 0.0 | 2.0 | 0.00 | 0.00 | 0.00 | 62 | 1009.3 |
| 20260508123024 | 46 | 277 | 1.0 | 2.0 | 0.00 | 0.00 | 0.00 | 60 | 1010.2 |
| 20260508122230 | 46 | 277 | 0.0 | 2.0 | 0.00 | 0.00 | 0.00 | 64 | 1009.3 |
| 20260508121730 | 45 | 277 | 0.0 | 2.0 | 0.00 | 0.00 | 0.00 | 65 | 1009.2 |
| 20260508121549 | 44 | 277 | 0.0 | 2.0 | 0.00 | 0.00 | 0.00 | 64 | 1010.0 |
| 20260508121502 | 44 | 277 | 0.0 | 2.0 | 0.00 | 0.00 | 0.00 | 65 | 1010.0 |
| 20260508120730 | 44 | 277 | 0.0 | 1.0 | 0.00 | 0.00 | 0.00 | 66 | 1009.1 |
| 20260508120136 | 43 | 277 | 0.0 | 2.0 | 0.00 | 0.00 | 0.00 | 67 | 1010.0 |
| 20260508115729 | 43 | 277 | 0.0 | 2.0 | 0.00 | 0.00 | 0.00 | 66 | 1009.0 |
| 20260508115229 | 43 | 277 | 0.0 | 1.0 | 0.00 | 0.00 | 0.00 | 68 | 1009.0 |
| 20260508114729 | 43 | 277 | 0.0 | 0.0 | 0.00 | 0.00 | 0.00 | 66 | 1009.0 |
| 20260508114535 | 43 | 277 | 0.0 | 0.0 | 0.00 | 0.00 | 0.00 | 70 | 1009.9 |
| 20260508113728 | 43 | 277 | 0.0 | 0.0 | 0.00 | 0.00 | 0.00 | 73 | 1008.9 |
| 20260508113228 | 43 | 277 | 0.0 | 0.0 | 0.00 | 0.00 | 0.00 | 68 | 1009.0 |
| 20260508113128 | 42 | 277 | 0.0 | 0.0 | 0.00 | 0.00 | 0.00 | 69 | 1009.9 |
| 20260508112729 | 43 | 277 | 0.0 | 0.0 | 0.00 | 0.00 | 0.00 | 74 | 1008.9 |
| 20260508112226 | 43 | 277 | 0.0 | 1.0 | 0.00 | 0.00 | 0.00 | 71 | 1008.9 |
| 20260508111716 | 42 | 277 | 0.0 | 1.0 | 0.00 | 0.00 | 0.00 | 69 | 1008.9 |
| 20260508111523 | 42 | 277 | 0.0 | 1.0 | 0.00 | 0.00 | 0.00 | 68 | 1009.6 |
| 20260508111214 | 42 | 277 | 0.0 | 1.0 | 0.00 | 0.00 | 0.00 | 69 | 1008.7 |
| 20260508110715 | 42 | 277 | 0.0 | 1.0 | 0.00 | 0.00 | 0.00 | 75 | 1008.7 |
| 20260508110216 | 41 | 277 | 0.0 | 1.0 | 0.00 | 0.00 | 0.00 | 67 | 1008.7 |
| 20260508110110 | 41 | 277 | 0.0 | 1.0 | 0.00 | 0.00 | 0.00 | 70 | 1009.6 |
| 20260508105715 | 41 | 277 | 0.0 | 1.0 | 0.00 | 0.00 | 0.00 | 72 | 1008.6 |
| 20260508105215 | 40 | 277 | 0.0 | 3.0 | 0.00 | 0.00 | 0.00 | 76 | 1008.6 |
| 20260508104717 | 39 | 277 | 1.0 | 3.0 | 0.00 | 0.00 | 0.00 | 73 | 1008.6 |
| 20260508104503 | 38 | 277 | 0.0 | 2.0 | 0.00 | 0.00 | 0.00 | 78 | 1009.5 |
| 20260508104214 | 37 | 277 | 1.0 | 3.0 | 0.00 | 0.00 | 0.00 | 79 | 1008.6 |
| 20260508103714 | 36 | 277 | 1.0 | 3.0 | 0.00 | 0.00 | 0.00 | 84 | 1008.6 |
| 20260508103215 | 35 | 277 | 0.0 | 1.0 | 0.00 | 0.00 | 0.00 | 84 | 1008.6 |
| 20260508103107 | 35 | 277 | 0.0 | 1.0 | 0.00 | 0.01 | 0.00 | 87 | 1009.3 |
| 20260508102714 | 34 | 277 | 0.0 | 0.0 | 0.00 | 0.00 | 0.00 | 87 | 1008.5 |
| 20260508102214 | 35 | 277 | 0.0 | 0.0 | 0.00 | 0.01 | 0.00 | 85 | 1008.3 |
| 20260508101714 | 33 | 277 | 0.0 | 0.0 | 0.00 | 0.01 | 0.00 | 90 | 1008.3 |
| 20260508101506 | 32 | 277 | 0.0 | 0.0 | 0.00 | 0.01 | 0.00 | 90 | 1009.1 |
| 20260508101213 | 32 | 277 | 0.0 | 0.0 | 0.00 | 0.01 | 0.00 | 90 | 1008.3 |
| 20260508100714 | 32 | 277 | 0.0 | 0.0 | 0.00 | 0.01 | 0.00 | 90 | 1008.2 |
| 20260508100213 | 33 | 277 | 0.0 | 1.0 | 0.00 | 0.01 | 0.00 | 88 | 1008.1 |
| 20260508100105 | 32 | 277 | 0.0 | 1.0 | 0.00 | 0.01 | 0.00 | 88 | 1009.0 |
| 20260508095713 | 33 | 277 | 0.0 | 1.0 | 0.00 | 0.01 | 0.00 | 90 | 1008.0 |
| 20260508095214 | 33 | 277 | 0.0 | 2.0 | 0.00 | 0.01 | 0.00 | 87 | 1007.9 |
| 20260508094710 | 32 | 277 | 0.0 | 2.0 | 0.00 | 0.01 | 0.00 | 90 | 1007.8 |
| 20260508094209 | 31 | 277 | 0.0 | 2.0 | 0.00 | 0.01 | 0.00 | 90 | 1007.8 |
| 20260508093709 | 31 | 277 | 1.0 | 3.0 | 0.00 | 0.01 | 0.00 | 90 | 1007.8 |
| 20260508093209 | 31 | 277 | 1.0 | 3.0 | 0.00 | 0.01 | 0.00 | 91 | 1007.7 |
| 20260508093059 | 31 | 277 | 1.0 | 3.0 | 0.00 | 0.01 | 0.00 | 92 | 1008.3 |
| 20260508092708 | 31 | 277 | 0.0 | 2.0 | 0.00 | 0.01 | 0.00 | 92 | 1007.6 |
| 20260508092210 | 31 | 277 | 0.0 | 2.0 | 0.00 | 0.01 | 0.00 | 92 | 1007.6 |
| 20260508091658 | 30 | 277 | 0.0 | 2.0 | 0.00 | 0.01 | 0.00 | 92 | 1008.4 |
| 20260508091210 | 31 | 277 | 0.0 | 0.0 | 0.00 | 0.01 | 0.00 | 92 | 1007.6 |
| 20260508090706 | 30 | 277 | 0.0 | 0.0 | 0.00 | 0.01 | 0.00 | 92 | 1007.6 |
| 20260508090205 | 30 | 277 | 0.0 | 0.0 | 0.00 | 0.01 | 0.00 | 92 | 1007.5 |
| 20260508090059 | 30 | 277 | 0.0 | 0.0 | 0.00 | 0.01 | 0.00 | 91 | 1008.3 |
| 20260508085704 | 30 | 277 | 0.0 | 0.0 | 0.00 | 0.01 | 0.00 | 91 | 1007.4 |
| 20260508085206 | 30 | 277 | 0.0 | 0.0 | 0.00 | 0.01 | 0.00 | 92 | 1007.4 |
| 20260508084703 | 30 | 277 | 0.0 | 0.0 | 0.00 | 0.01 | 0.00 | 91 | 1007.4 |
| 20260508084651 | 30 | 277 | 0.0 | 0.0 | 0.00 | 0.01 | 0.00 | 91 | 1008.2 |
| 20260508084203 | 30 | 277 | 0.0 | 0.0 | 0.00 | 0.01 | 0.00 | 91 | 1007.5 |
| 20260508083702 | 31 | 277 | 0.0 | 0.0 | 0.00 | 0.01 | 0.00 | 91 | 1007.4 |
| 20260508083202 | 31 | 277 | 0.0 | 0.0 | 0.00 | 0.01 | 0.00 | 92 | 1007.4 |
| 20260508083042 | 30 | 277 | 0.0 | 0.0 | 0.00 | 0.01 | 0.00 | 92 | 1008.2 |
| 20260508082201 | 31 | 277 | 0.0 | 0.0 | 0.00 | 0.01 | 0.00 | 91 | 1007.5 |
| 20260508081702 | 31 | 277 | 0.0 | 0.0 | 0.00 | 0.01 | 0.00 | 91 | 1007.4 |
| 20260508081631 | 30 | 277 | 0.0 | 0.0 | 0.00 | 0.01 | 0.00 | 91 | 1008.2 |
| 20260508081202 | 31 | 277 | 0.0 | 0.0 | 0.00 | 0.01 | 0.00 | 90 | 1007.4 |
| 20260508080202 | 31 | 277 | 0.0 | 0.0 | 0.00 | 0.01 | 0.00 | 91 | 1007.3 |
| 20260508080026 | 31 | 277 | 0.0 | 0.0 | 0.00 | 0.01 | 0.00 | 91 | 1008.0 |
| 20260508075702 | 31 | 277 | 0.0 | 0.0 | 0.00 | 0.01 | 0.00 | 91 | 1007.2 |
| 20260508074611 | 31 | 277 | 0.0 | 0.0 | 0.00 | 0.01 | 0.00 | 91 | 1008.0 |
| 20260508074202 | 31 | 277 | 0.0 | 0.0 | 0.00 | 0.01 | 0.00 | 90 | 1007.2 |
| 20260508073701 | 31 | 277 | 0.0 | 0.0 | 0.00 | 0.01 | 0.00 | 90 | 1007.2 |
| 20260508073008 | 31 | 277 | 0.0 | 0.0 | 0.00 | 0.01 | 0.01 | 89 | 1008.0 |
| 20260508072701 | 32 | 277 | 0.0 | 0.0 | 0.00 | 0.01 | 0.00 | 90 | 1007.3 |
| 20260508072201 | 32 | 277 | 0.0 | 0.0 | 0.00 | 0.01 | 0.00 | 89 | 1007.3 |
| 20260508071702 | 32 | 277 | 0.0 | 0.0 | 0.00 | 0.01 | 0.00 | 88 | 1007.4 |
| 20260508071606 | 31 | 277 | 0.0 | 0.0 | 0.00 | 0.01 | 0.01 | 88 | 1008.2 |
| 20260508071202 | 32 | 277 | 0.0 | 0.0 | 0.00 | 0.01 | 0.00 | 89 | 1007.4 |
| 20260508070701 | 32 | 277 | 0.0 | 0.0 | 0.00 | 0.01 | 0.00 | 90 | 1007.3 |
| 20260508070001 | 31 | 277 | 0.0 | 0.0 | 0.00 | 0.01 | 0.01 | 90 | 1008.1 |
| 20260508065701 | 32 | 277 | 0.0 | 0.0 | 0.00 | 0.01 | 0.00 | 89 | 1007.4 |
| 20260508065201 | 32 | 277 | 0.0 | 0.0 | 0.00 | 0.01 | 0.00 | 90 | 1007.4 |
| 20260508064701 | 32 | 277 | 0.0 | 0.0 | 0.00 | 0.01 | 0.00 | 89 | 1007.5 |
| 20260508064609 | 32 | 277 | 0.0 | 0.0 | 0.00 | 0.01 | 0.01 | 89 | 1008.2 |
| 20260508064200 | 32 | 277 | 0.0 | 0.0 | 0.00 | 0.01 | 0.00 | 90 | 1007.5 |
| 20260508063701 | 32 | 277 | 0.0 | 0.0 | 0.00 | 0.01 | 0.00 | 88 | 1007.6 |
| 20260508063201 | 33 | 277 | 0.0 | 0.0 | 0.00 | 0.01 | 0.00 | 88 | 1007.5 |
| 20260508063004 | 32 | 277 | 0.0 | 0.0 | 0.00 | 0.01 | 0.01 | 89 | 1008.3 |
| 20260508062700 | 33 | 277 | 0.0 | 0.0 | 0.00 | 0.01 | 0.00 | 89 | 1007.6 |
| 20260508062200 | 33 | 277 | 0.0 | 0.0 | 0.00 | 0.01 | 0.00 | 88 | 1007.6 |
| 20260508061701 | 33 | 277 | 0.0 | 0.0 | 0.00 | 0.01 | 0.00 | 87 | 1007.7 |
| 20260508061604 | 33 | 277 | 0.0 | 0.0 | 0.00 | 0.01 | 0.01 | 87 | 1008.4 |
| 20260508061202 | 33 | 277 | 0.0 | 0.0 | 0.00 | 0.01 | 0.00 | 87 | 1007.8 |
| 20260508060702 | 33 | 277 | 0.0 | 0.0 | 0.00 | 0.01 | 0.00 | 86 | 1007.7 |
| 20260508060200 | 33 | 277 | 0.0 | 0.0 | 0.00 | 0.01 | 0.00 | 87 | 1007.7 |
| 20260508060002 | 33 | 277 | 0.0 | 0.0 | 0.00 | 0.01 | 0.01 | 87 | 1008.4 |
| 20260508055658 | 34 | 277 | 0.0 | 0.0 | 0.00 | 0.01 | 0.00 | 87 | 1007.7 |
| 20260508055154 | 34 | 277 | 0.0 | 0.0 | 0.00 | 0.01 | 0.00 | 87 | 1007.8 |
| 20260508054654 | 34 | 277 | 0.0 | 0.0 | 0.00 | 0.01 | 0.00 | 86 | 1007.8 |
| 20260508054627 | 34 | 277 | 0.0 | 0.0 | 0.00 | 0.01 | 0.01 | 86 | 1008.5 |
| 20260508053652 | 35 | 277 | 0.0 | 0.0 | 0.00 | 0.01 | 0.00 | 85 | 1007.8 |